Flight Track Log - Related Links

Times and Time Zones

All times are in EDT time to prevent confusion due to time zone crossing. See the N51FD flight status page for this flight to view local times or setup timezone preferences in your user account.

Time Position Orientation Groundspeed Altitude Reporting Facility
EDT Latitude Longitude Course Direction KTS MPH feet Rate Location/Type
Sat 02:59:02 PM 40.9333 -72.3167 25° Northeast 132 152 1,300  Level New York TRACON
Sat 03:00:02 PM 40.9667 -72.3000 21° North 140 161 2,000 700 Climbing New York TRACON
Sat 03:01:02 PM 41.0000 -72.3167 339° North 143 165 2,700 650 Climbing New York TRACON
Sat 03:02:02 PM 41.0333 -72.3333 339° North 124 143 3,300 550 Climbing New York TRACON
Sat 03:03:02 PM 41.0667 -72.3500 339° North 142 163 3,800 468 Climbing New York TRACON
Sat 03:03:19 PM 41.0853 -72.3519 355° North 141 162 3,900 529 Climbing Boston Center
Sat 03:04:00 PM 41.0895 -72.1707 25° Northeast  Level Estimated
Sat 03:04:44 PM 41.1375 -72.3656 349° North 131 151 4,700  Level Boston Center
Sat 03:05:44 PM 41.1769 -72.3767 348° North 145 167 5,200 99 Climbing Boston Center
Sat 03:06:45 PM 41.2250 -72.3683 North 182 209 4,900 -141 Descending Boston Center
Sat 03:07:52 PM 41.2708 -72.3158 41° Northeast 187 215 4,900  Level Boston Center
Sat 03:08:52 PM 41.3103 -72.2769 37° Northeast 184 212 4,900  Level Boston Center
Sat 03:09:59 PM 41.3622 -72.2328 33° Northeast 186 214 4,900  Level Boston Center
Sat 03:11:00 PM 41.4019 -72.1911 38° Northeast 188 216 4,900  Level Boston Center
Sat 03:12:00 PM 41.4433 -72.1467 39° Northeast 187 215 4,900  Level Boston Center
Sat 03:13:01 PM 41.4850 -72.0992 40° Northeast 186 214 4,900  Level Boston Center
Sat 03:13:56 PM 41.5203 -72.0631 37° Northeast 186 214 4,900  Level Boston Center
Sat 03:14:51 PM 41.5556 -72.0239 40° Northeast 191 220 4,900  Level Boston Center
Sat 03:15:51 PM 41.6033 -72.0069 15° North 168 193 4,900  Level Boston Center
Sat 03:16:52 PM 41.6514 -72.0094 358° North 169 194 4,900 57 Level Boston Center
Sat 03:17:37 PM 41.6869 -72.0092 360° North 175 201 5,000 60 Climbing Boston Center
Sat 03:18:32 PM 41.7286 -72.0089 360° North 176 203 5,000  Level Boston Center
Sat 03:19:32 PM 41.7786 -72.0058 North 171 197 5,000  Level Boston Center
Sat 03:20:33 PM 41.8244 -72.0000 North 170 196 5,000  Level Boston Center
Sat 03:21:34 PM 41.8722 -71.9969 North 169 194 5,000  Level Boston Center
Sat 03:22:35 PM 41.9222 -71.9908 North 166 191 5,000  Level Boston Center
Sat 03:23:36 PM 41.9639 -72.0044 346° North 158 182 5,000  Level Boston Center
Sat 03:24:37 PM 42.0100 -72.0125 353° North 162 186 5,000  Level Boston Center
Sat 03:25:38 PM 42.0536 -72.0178 355° North 158 182 5,000  Level Boston Center
Sat 03:26:38 PM 42.0975 -72.0261 352° North 159 183 5,000  Level Boston Center
Sat 03:27:39 PM 42.1369 -71.9781 42° Northeast 180 207 5,000  Level Boston Center
Sat 03:28:40 PM 42.1764 -71.9358 38° Northeast 180 207 5,000  Level Boston Center
Sat 03:29:40 PM 42.2178 -71.8878 41° Northeast 185 213 5,000 -67 Level Boston Center
Sat 03:31:38 PM 42.3000 -71.8000 38° Northeast 183 211 4,800 -35 Descending KA90
Sat 03:32:32 PM 42.3333 -71.7667 36° Northeast 178 205 4,900 53 Climbing KA90
Sat 03:33:32 PM 42.3667 -71.7333 36° Northeast 184 212 4,900 -227 Level KA90
Sat 03:34:44 PM 42.4167 -71.6833 36° Northeast 183 211 4,400 -400 Descending KA90
Sat 03:35:32 PM 42.4500 -71.6333 48° Northeast 179 206 4,100 -556 Descending KA90
Sat 03:36:32 PM 42.4833 -71.5833 48° Northeast 178 205 3,400 -600 Descending KA90
Sat 03:37:32 PM 42.5167 -71.5333 48° Northeast 182 209 2,900 -190 Descending KA90
Sat 03:38:38 PM 42.5500 -71.4833 48° Northeast 174 200 3,000 -150 Climbing KA90
Sat 03:39:32 PM 42.5667 -71.4167 71° East 192 221 2,600 -500 Descending KA90
Sat 03:40:38 PM 42.5500 -71.3500 109° East 186 214 2,000 -571 Descending KA90
Sat 03:41:38 PM 42.5167 -71.3000 132° Southeast 184 212 1,400 -310 Descending KA90
Sat 03:43:32 PM 42.5000 -71.2167 105° East 110 127 1,100 -207 Descending KA90
Sat 03:44:32 PM 42.4833 -71.2167 180° South 98 113 800 -300 Descending KA90
Sat 03:45:32 PM 42.4667 -71.2333 216° Southwest 105 121 500 -300 Descending KA90

Login

Don't have an account? Register now (free) for customized features, flight alerts, and more!